Flag for Turkey Weather past 2 weeks in Gaziantep, Turkey

Now
88 °F

Sunny.


Feels Like: 86 °F
Forecast: 71 / 96 °F
Wind: 15 mph from West

Location: Gaziantep Airport

Current Time: Jul 22, 2014 at 11:06:59 PM

Latest Report: Jul 22, 2014 at 7:50 PM


Visibility: 10 mi

Pressure: 29.74 "Hg

Humidity: 33%

Dew point: 55 °F

Location of GaziantepLocation

Historic Weather in Gaziantep — Graph

°F

Gaziantep temperature yesterday

Maximum temperature yesterday: 93 °F (at 1:20 PM)
Minimum temperature yesterday: 72 °F (at 3:50 AM)
Average temperature yesterday: 83 °F

Past Weeks' High & Low Weather Summary

 TemperatureHumidityPressure
High104 °F (Jul 12, 11:50 AM)94% (Jul 12, 2:50 PM)29.83 "Hg (Jul 12, 2:50 PM)
Low48 °F (Jul 12, 2:50 PM)7% (Jul 8, 1:50 PM)29.56 "Hg (Jul 20, 2:50 PM)
Average85 °F35%29.71 "Hg
* Reported Jul 7 7:20 PM — Jul 22 7:50 PM, Gaziantep, Weather by CustomWeather, © 2014

Note: Actual official high and low records may vary slightly from our data, if they occured in-between our weather recording intervals... More about our weather records

Advertising

Gaziantep weather history for previous 24 hours

 ConditionsComfort  
Time TempWeatherWind HumidityBarometerVisibility
7:50 PM
Jul 22
88 °FSunny.15 mph33%29.74 "Hg10 mi
7:20 PM90 °FPassing clouds.16 mph27%29.74 "HgN/A
6:50 PM91 °FPassing clouds.14 mph23%29.71 "HgN/A
6:20 PM93 °FScattered clouds.8 mph21%29.71 "HgN/A
5:50 PM93 °FScattered clouds.10 mph21%29.71 "HgN/A
5:20 PM93 °FScattered clouds.14 mph21%29.71 "HgN/A
4:50 PM93 °FScattered clouds.6 mph19%29.71 "HgN/A
4:20 PM93 °FScattered clouds.7 mph20%29.71 "HgN/A
3:50 PM93 °FScattered clouds.8 mph20%29.74 "HgN/A
3:20 PM95 °FSunny.3 mph18%29.74 "Hg10 mi
2:50 PM93 °FScattered clouds.6 mph20%29.74 "HgN/A
2:20 PM93 °FScattered clouds.7 mph21%29.74 "HgN/A
1:50 PM91 °FScattered clouds.1 mph21%29.74 "HgN/A
1:20 PM93 °FPassing clouds.5 mph21%29.74 "HgN/A
12:50 PM91 °FPassing clouds.2 mph21%29.74 "HgN/A
12:20 PM91 °FSunny.2 mph21%29.77 "Hg10 mi
11:50 AM90 °FSunny.2 mph22%29.77 "Hg10 mi
11:20 AM90 °FSunny.3 mph22%29.77 "Hg10 mi
10:50 AM90 °FPassing clouds.5 mph22%29.77 "HgN/A
10:20 AM90 °FSunny.1 mph24%29.77 "Hg10 mi
9:50 AM88 °FPassing clouds.5 mph25%29.77 "HgN/A
9:20 AM86 °FPassing clouds.9 mph27%29.77 "HgN/A
8:50 AM84 °FSunny.12 mph29%29.77 "Hg10 mi
8:20 AM82 °FSunny.9 mph32%29.77 "Hg10 mi
7:50 AM81 °FPassing clouds.5 mph37%29.77 "HgN/A
7:20 AM79 °FSunny.1 mph39%29.77 "Hg10 mi
6:50 AM73 °FSunny.1 mph53%29.74 "Hg10 mi
6:20 AM73 °FClear.No wind50%29.74 "Hg10 mi
5:50 AM68 °FClear.No wind64%29.74 "Hg10 mi
5:20 AM70 °FClear.No wind60%29.74 "Hg10 mi
4:50 AM68 °FClear.1 mph64%29.74 "Hg10 mi
4:20 AM72 °FClear.1 mph61%29.74 "Hg10 mi
3:50 AM72 °FClear.No wind61%29.74 "Hg10 mi
3:20 AM75 °FPassing clouds.5 mph50%29.74 "HgN/A
2:50 AM75 °FClear.3 mph50%29.74 "Hg10 mi
2:20 AM75 °FClear.No wind54%29.74 "Hg10 mi
1:50 AM77 °FClear.No wind47%29.74 "Hg10 mi
1:20 AM79 °FClear.5 mph45%29.74 "Hg10 mi
12:50 AM79 °FClear.6 mph45%29.74 "Hg10 mi
12:20 AM81 °FPassing clouds.6 mph39%29.74 "HgN/A
11:50 PM
Jul 21
81 °FClear.10 mph42%29.71 "Hg10 mi
11:20 PM81 °FClear.9 mph39%29.71 "Hg10 mi
Weather by CustomWeather, © 2014

See weather overviewHow to use our weather pages